Date,TemperatureHighF,TemperatureAvgF,TemperatureLowF,DewpointHighF,DewpointAvgF,DewpointLowF,HumidityHigh,HumidityAvg,HumidityLow,PressureMaxIn,PressureMinIn,WindSpeedMaxMPH,WindSpeedAvgMPH,GustSpeedMaxMPH,PrecipitationSumIn
2013-4-1,62.3,57.2,54.3,49.9,48.6,47.2,81,73,60,30.08,29.93,15,6,35,0.00
2013-4-2,62.4,56.0,51.3,48.8,47.0,45.7,84,72,57,30.15,30.08,13,7,30,0.00
2013-4-3,67.6,55.3,40.8,50.8,45.8,38.7,93,72,42,30.12,29.92,8,2,19,0.00
2013-4-4,57.8,53.5,50.0,54.4,49.0,45.3,91,85,76,29.92,29.71,9,1,21,0.19
2013-4-5,56.6,51.6,48.0,51.4,47.5,45.7,98,86,76,29.91,29.81,9,2,21,0.12
2013-4-6,50.6,46.5,41.6,46.6,43.5,39.4,96,89,76,29.97,29.78,11,2,28,0.60
2013-4-7,47.9,42.9,38.8,43.5,39.6,36.8,95,88,72,29.87,29.57,12,3,30,0.81
2013-4-8,54.0,46.0,40.3,42.6,38.7,35.5,89,76,61,30.25,29.87,12,5,24,0.00
2013-4-9,57.6,48.2,33.7,43.5,39.4,31.6,93,73,54,30.34,30.21,11,3,24,0.00
2013-4-10,58.3,50.6,44.4,50.2,42.7,36.2,91,75,59,30.25,30.00,13,5,32,0.14
2013-4-11,55.6,48.1,42.8,41.1,38.2,35.6,81,69,54,30.26,30.14,15,6,30,0.00
2013-4-12,53.8,44.1,31.9,42.5,37.3,29.8,93,78,55,30.14,29.75,13,4,33,0.03
2013-4-13,47.8,42.0,36.8,42.2,35.7,31.9,92,78,57,30.01,29.76,18,8,39,0.34
2013-4-14,52.0,43.1,36.8,38.0,35.6,32.7,88,75,50,30.02,29.88,12,5,30,0.02
2013-4-15,51.0,43.1,34.9,41.0,36.0,31.8,92,77,54,30.13,29.91,9,2,18,0.01
2013-4-16,53.7,43.5,33.4,38.9,35.1,31.0,94,74,44,30.39,30.13,6,1,13,0.00
2013-4-17,58.5,44.8,29.9,40.6,34.3,28.1,94,70,39,30.47,30.36,11,4,23,0.00
2013-4-18,56.5,49.9,45.4,46.1,40.5,37.3,88,70,57,30.42,30.25,12,6,28,0.00
2013-4-19,56.4,51.1,48.7,49.1,46.3,44.4,90,84,70,30.25,30.07,13,8,31,0.11
2013-4-20,57.0,51.3,47.9,44.9,42.4,39.5,84,72,58,30.27,30.20,12,5,31,0.00
2013-4-21,53.5,48.5,44.7,43.9,41.4,38.9,83,76,66,30.27,30.17,13,6,29,0.00
2013-4-22,61.6,49.1,34.6,41.2,33.4,26.3,94,60,28,30.45,30.27,9,2,19,0.00
2013-4-23,69.2,48.6,30.3,37.6,32.1,27.0,89,58,28,30.41,30.12,5,1,14,0.00
2013-4-24,75.1,53.5,34.8,42.9,33.6,28.6,84,52,21,30.31,29.97,9,1,18,0.00
2013-4-25,74.2,60.4,44.6,45.6,40.4,36.3,76,50,32,30.08,29.96,11,3,22,0.00
2013-4-26,78.2,64.3,46.6,49.7,41.5,34.1,82,47,22,30.16,30.08,10,4,23,0.00
2013-4-27,71.2,59.2,45.6,44.6,38.6,29.1,77,49,22,30.17,30.10,14,5,35,0.00
2013-4-28,64.2,56.4,50.0,48.1,43.9,38.8,88,65,40,30.18,29.96,14,5,32,0.01
2013-4-29,56.0,50.2,43.3,46.7,37.4,28.5,88,63,37,30.12,29.92,16,8,36,0.15
2013-4-30,54.7,46.1,39.0,36.7,32.1,29.8,80,59,40,30.39,30.12,11,4,25,0.00